N247JL CYTZ-CYHZ

Flight info

Callsign N247JL
Flight time 2h 9m
Altitude 37000
Route BOMET7 OLABA Q951 TALNO Q929 TOXAL DCT EBONY FUNDY5
Aircraft P180/L-SBDFGM3RWXY/LB1

Departure

Time 2026-05-04 23:03
Airport Billy Bishop Toronto City Airport (CYTZ)

Arrival

Time 2026-05-05 01:13
Airport Halifax / Stanfield International Airport (CYHZ)
Time Latitude Longitude Altitude Speed Heading
2026-05-04 22:12 43.63237 -79.39458 254 ft 0 kts 204°
2026-05-04 22:52 43.63233 -79.39458 254 ft 1 kts 173°
2026-05-04 22:52 43.63229 -79.39432 254 ft 4 kts 89°
2026-05-04 22:53 43.63228 -79.39415 254 ft 0 kts 117°
2026-05-04 22:55 43.63227 -79.39415 254 ft 0 kts 117°
2026-05-04 22:55 43.63225 -79.39411 254 ft 1 kts 127°
2026-05-04 22:55 43.63213 -79.39398 254 ft 4 kts 143°
2026-05-04 22:56 43.63187 -79.39371 254 ft 6 kts 143°
2026-05-04 22:56 43.63152 -79.39334 254 ft 3 kts 143°
2026-05-04 22:56 43.63144 -79.39327 254 ft 1 kts 143°
2026-05-04 22:56 43.63134 -79.39316 254 ft 3 kts 143°
2026-05-04 22:57 43.63127 -79.39309 254 ft 1 kts 143°
2026-05-04 22:57 43.63114 -79.39295 254 ft 4 kts 143°
2026-05-04 22:57 43.63087 -79.39268 256 ft 2 kts 143°
2026-05-04 22:57 43.63078 -79.39237 259 ft 10 kts 84°
2026-05-04 22:58 43.63105 -79.39125 257 ft 15 kts 71°
2026-05-04 22:58 43.63133 -79.39010 255 ft 4 kts 73°
2026-05-04 22:58 43.63135 -79.38994 255 ft 0 kts 81°
2026-05-04 23:01 43.63136 -79.38990 255 ft 2 kts 81°
2026-05-04 23:01 43.63125 -79.38954 254 ft 7 kts 137°
2026-05-04 23:02 43.63087 -79.38938 254 ft 9 kts 251°
2026-05-04 23:02 43.63071 -79.39010 255 ft 0 kts 251°
2026-05-04 23:02 43.63037 -79.39149 259 ft 47 kts 251°
2026-05-04 23:02 43.62864 -79.39853 255 ft 104 kts 250°
2026-05-04 23:03 43.62613 -79.40910 465 ft 124 kts 247°
2026-05-04 23:03 43.62121 -79.41925 731 ft 133 kts 218°
2026-05-04 23:03 43.61255 -79.42489 1135 ft 140 kts 192°
2026-05-04 23:03 43.60277 -79.42266 1775 ft 152 kts 171°
2026-05-04 23:04 43.59241 -79.41731 2220 ft 169 kts 170°
2026-05-04 23:04 43.58119 -79.41133 2752 ft 176 kts 171°
2026-05-04 23:04 43.56914 -79.40483 2999 ft 200 kts 170°
2026-05-04 23:04 43.55527 -79.39777 3016 ft 224 kts 169°
2026-05-04 23:05 43.54001 -79.39040 3014 ft 239 kts 170°
2026-05-04 23:05 43.52397 -79.38287 3097 ft 245 kts 170°
2026-05-04 23:05 43.50793 -79.37480 3278 ft 250 kts 162°
2026-05-04 23:05 43.49451 -79.35852 3439 ft 268 kts 131°
2026-05-04 23:06 43.48750 -79.33435 3609 ft 279 kts 100°
2026-05-04 23:06 43.48944 -79.30826 3902 ft 280 kts 69°
2026-05-04 23:06 43.50001 -79.28595 4197 ft 272 kts 37°
2026-05-04 23:06 43.51584 -79.27343 4509 ft 257 kts
2026-05-04 23:07 43.53286 -79.26827 4798 ft 254 kts
2026-05-04 23:07 43.55026 -79.26370 5098 ft 255 kts
2026-05-04 23:07 43.56766 -79.25873 5434 ft 255 kts
2026-05-04 23:07 43.58499 -79.25360 5729 ft 255 kts
2026-05-04 23:08 43.60244 -79.24854 6009 ft 257 kts
2026-05-04 23:08 43.61991 -79.24352 6298 ft 257 kts
2026-05-04 23:08 43.63741 -79.23847 6566 ft 257 kts
2026-05-04 23:08 43.65495 -79.23340 6834 ft 258 kts
2026-05-04 23:09 43.67245 -79.22833 7104 ft 258 kts
2026-05-04 23:09 43.69003 -79.22269 7352 ft 263 kts
2026-05-04 23:09 43.70599 -79.20894 7617 ft 281 kts 36°
2026-05-04 23:09 43.71736 -79.18650 7875 ft 292 kts 57°
2026-05-04 23:10 43.72628 -79.16110 8113 ft 293 kts 60°
2026-05-04 23:10 43.73512 -79.13561 8353 ft 294 kts 58°
2026-05-04 23:10 43.74432 -79.11040 8592 ft 294 kts 57°
2026-05-04 23:10 43.75366 -79.08516 8819 ft 295 kts 57°
2026-05-04 23:11 43.76289 -79.05973 9061 ft 296 kts 58°
2026-05-04 23:11 43.77203 -79.03429 9311 ft 295 kts 58°
2026-05-04 23:11 43.78102 -79.00924 9788 ft 286 kts 57°
2026-05-04 23:11 43.78998 -78.98455 10093 ft 288 kts 57°
2026-05-04 23:12 43.79883 -78.96019 10332 ft 288 kts 57°
2026-05-04 23:12 43.80776 -78.93540 10530 ft 288 kts 57°
2026-05-04 23:12 43.81669 -78.91056 10798 ft 289 kts 57°
2026-05-04 23:12 43.82557 -78.88581 11256 ft 283 kts 57°
2026-05-04 23:13 43.83427 -78.86162 11719 ft 278 kts 57°
2026-05-04 23:13 43.84287 -78.83774 12123 ft 278 kts 57°
2026-05-04 23:13 43.85160 -78.81381 12454 ft 278 kts 54°
2026-05-04 23:13 43.86109 -78.79048 12787 ft 279 kts 55°
2026-05-04 23:14 43.87007 -78.76648 13127 ft 281 kts 56°
2026-05-04 23:14 43.87912 -78.74240 13443 ft 282 kts 55°
2026-05-04 23:14 43.88849 -78.71843 13728 ft 283 kts 55°
2026-05-04 23:14 43.89793 -78.69438 13989 ft 285 kts 55°
2026-05-04 23:15 43.90733 -78.67008 14255 ft 287 kts 56°
2026-05-04 23:15 43.91676 -78.64557 14525 ft 288 kts 56°
2026-05-04 23:15 43.92624 -78.62100 14804 ft 289 kts 56°
2026-05-04 23:15 43.93578 -78.59634 15053 ft 291 kts 56°
2026-05-04 23:16 43.94533 -78.57158 15314 ft 292 kts 56°
2026-05-04 23:16 43.95494 -78.54665 15570 ft 293 kts 56°
2026-05-04 23:16 43.96458 -78.52161 15825 ft 295 kts 56°
2026-05-04 23:16 43.97425 -78.49646 16063 ft 296 kts 56°
2026-05-04 23:17 43.98395 -78.47123 16298 ft 297 kts 56°
2026-05-04 23:17 43.99369 -78.44586 16535 ft 298 kts 57°
2026-05-04 23:17 44.00347 -78.42038 16763 ft 299 kts 57°
2026-05-04 23:17 44.01327 -78.39481 16997 ft 300 kts 57°
2026-05-04 23:18 44.02309 -78.36916 17213 ft 301 kts 57°
2026-05-04 23:18 44.03295 -78.34344 17416 ft 303 kts 57°
2026-05-04 23:18 44.04273 -78.31789 17635 ft 303 kts 57°
2026-05-04 23:18 44.05265 -78.29193 17845 ft 304 kts 57°
2026-05-04 23:19 44.06260 -78.26587 18027 ft 305 kts 57°
2026-05-04 23:19 44.07258 -78.23972 18206 ft 306 kts 57°
2026-05-04 23:19 44.08255 -78.21354 18391 ft 307 kts 57°
2026-05-04 23:19 44.09256 -78.18729 18566 ft 308 kts 56°
2026-05-04 23:20 44.10259 -78.16092 18756 ft 308 kts 57°
2026-05-04 23:20 44.11263 -78.13451 18922 ft 309 kts 57°
2026-05-04 23:20 44.12269 -78.10801 19106 ft 310 kts 57°
2026-05-04 23:20 44.13276 -78.08149 19278 ft 310 kts 57°
2026-05-04 23:21 44.14285 -78.05486 19441 ft 311 kts 57°
2026-05-04 23:21 44.15299 -78.02810 19597 ft 312 kts 57°
2026-05-04 23:21 44.16311 -78.00135 19769 ft 313 kts 57°
2026-05-04 23:21 44.17260 -77.97395 19932 ft 317 kts 64°
2026-05-04 23:22 44.18031 -77.94513 20105 ft 318 kts 65°
2026-05-04 23:22 44.18810 -77.91628 20285 ft 318 kts 64°
2026-05-04 23:22 44.19600 -77.88740 20501 ft 320 kts 64°
2026-05-04 23:22 44.20389 -77.85839 20825 ft 320 kts 64°
2026-05-04 23:23 44.21175 -77.82929 21123 ft 322 kts 65°
2026-05-04 23:23 44.21964 -77.80002 21426 ft 323 kts 64°
2026-05-04 23:23 44.22758 -77.77064 21746 ft 324 kts 64°
2026-05-04 23:23 44.23555 -77.74113 22060 ft 326 kts 64°
2026-05-04 23:24 44.24352 -77.71152 22373 ft 327 kts 64°
2026-05-04 23:24 44.25155 -77.68168 22607 ft 332 kts 64°
2026-05-04 23:24 44.25980 -77.65109 22660 ft 341 kts 64°
2026-05-04 23:24 44.26823 -77.61971 22684 ft 350 kts 65°
2026-05-04 23:25 44.27685 -77.58747 22690 ft 358 kts 65°
2026-05-04 23:25 44.28545 -77.55520 22691 ft 360 kts 65°
2026-05-04 23:25 44.29420 -77.52249 22689 ft 360 kts 65°
2026-05-04 23:25 44.30303 -77.48974 22691 ft 360 kts 65°
2026-05-04 23:26 44.31185 -77.45707 22683 ft 360 kts 65°
2026-05-04 23:26 44.32061 -77.42439 22685 ft 360 kts 65°
2026-05-04 23:26 44.32936 -77.39164 22681 ft 359 kts 65°
2026-05-04 23:26 44.33811 -77.35897 22692 ft 359 kts 65°
2026-05-04 23:27 44.34685 -77.32629 22682 ft 359 kts 65°
2026-05-04 23:27 44.35557 -77.29359 22684 ft 359 kts 65°
2026-05-04 23:27 44.36430 -77.26083 22687 ft 359 kts 65°
2026-05-04 23:27 44.37300 -77.22811 22687 ft 359 kts 65°
2026-05-04 23:28 44.38170 -77.19536 22685 ft 359 kts 65°
2026-05-04 23:28 44.39005 -77.16244 22685 ft 361 kts 70°
2026-05-04 23:28 44.39435 -77.12768 22687 ft 364 kts 79°
2026-05-04 23:28 44.39718 -77.09244 22689 ft 365 kts 81°
2026-05-04 23:29 44.40006 -77.05723 22682 ft 364 kts 79°
2026-05-04 23:29 44.40348 -77.02212 22691 ft 364 kts 79°
2026-05-04 23:29 44.40695 -76.98708 22689 ft 364 kts 79°
2026-05-04 23:29 44.41016 -76.95190 22691 ft 365 kts 80°
2026-05-04 23:30 44.41326 -76.91674 22688 ft 364 kts 80°
2026-05-04 23:30 44.41647 -76.88156 22691 ft 364 kts 79°
2026-05-04 23:30 44.41974 -76.84637 22693 ft 364 kts 79°
2026-05-04 23:30 44.42291 -76.81172 22699 ft 364 kts 79°
2026-05-04 23:31 44.42607 -76.77651 22692 ft 364 kts 79°
2026-05-04 23:31 44.42923 -76.74135 22696 ft 364 kts 79°
2026-05-04 23:31 44.43240 -76.70622 22694 ft 364 kts 79°
2026-05-04 23:31 44.43556 -76.67105 22693 ft 364 kts 79°
2026-05-04 23:32 44.43869 -76.63589 22689 ft 364 kts 79°
2026-05-04 23:32 44.44182 -76.60070 22697 ft 364 kts 80°
2026-05-04 23:32 44.44393 -76.57690 22699 ft 364 kts 79°
2026-05-04 23:32 44.44704 -76.54173 22698 ft 364 kts 80°
2026-05-04 23:33 44.45013 -76.50660 22697 ft 364 kts 80°
2026-05-04 23:33 44.45318 -76.47186 22695 ft 364 kts 80°
2026-05-04 23:33 44.45626 -76.43671 22694 ft 364 kts 80°
2026-05-04 23:33 44.45933 -76.40151 22695 ft 364 kts 80°
2026-05-04 23:34 44.46238 -76.36634 22696 ft 364 kts 80°
2026-05-04 23:34 44.46543 -76.33118 22696 ft 364 kts 80°
2026-05-04 23:34 44.46845 -76.29603 22700 ft 364 kts 80°
2026-05-04 23:34 44.47148 -76.26090 22701 ft 364 kts 80°
2026-05-04 23:35 44.47449 -76.22569 22699 ft 364 kts 80°
2026-05-04 23:35 44.47992 -76.19147 22688 ft 357 kts 64°
2026-05-04 23:35 44.48984 -76.15967 22695 ft 356 kts 60°
2026-05-04 23:35 44.50019 -76.12815 22693 ft 356 kts 60°
2026-05-04 23:36 44.51027 -76.09640 22696 ft 356 kts 61°
2026-05-04 23:36 44.52010 -76.06451 22691 ft 357 kts 62°
2026-05-04 23:36 44.53001 -76.03262 22689 ft 356 kts 61°
2026-05-04 23:36 44.54002 -76.00092 22686 ft 356 kts 61°
2026-05-04 23:37 44.55004 -75.96915 22687 ft 356 kts 61°
2026-05-04 23:37 44.55996 -75.93734 22686 ft 356 kts 61°
2026-05-04 23:37 44.56974 -75.90589 22681 ft 357 kts 62°
2026-05-04 23:37 44.57969 -75.87400 22680 ft 357 kts 62°
2026-05-04 23:38 44.58964 -75.84210 22680 ft 357 kts 61°
2026-05-04 23:38 44.59959 -75.81014 22671 ft 357 kts 62°
2026-05-04 23:38 44.60950 -75.77819 22672 ft 357 kts 62°
2026-05-04 23:38 44.61942 -75.74621 22674 ft 357 kts 62°
2026-05-04 23:39 44.62933 -75.71424 22675 ft 357 kts 62°
2026-05-04 23:39 44.63925 -75.68221 22668 ft 358 kts 62°
2026-05-04 23:39 44.64904 -75.65011 22667 ft 359 kts 64°
2026-05-04 23:39 44.65767 -75.61715 22667 ft 359 kts 65°
2026-05-04 23:40 44.66684 -75.58459 22669 ft 358 kts 63°
2026-05-04 23:40 44.67607 -75.55208 22671 ft 359 kts 64°
2026-05-04 23:40 44.68496 -75.51931 22671 ft 359 kts 65°
2026-05-04 23:40 44.69372 -75.48642 22671 ft 359 kts 65°
2026-05-04 23:41 44.70185 -75.45645 22673 ft 359 kts 64°
2026-05-04 23:41 44.71085 -75.42365 22668 ft 360 kts 64°
2026-05-04 23:41 44.71980 -75.39083 22668 ft 360 kts 65°
2026-05-04 23:41 44.72929 -75.35840 22667 ft 358 kts 61°
2026-05-04 23:42 44.73897 -75.32603 22668 ft 359 kts 64°
2026-05-04 23:42 44.74806 -75.29332 22671 ft 359 kts 64°
2026-05-04 23:42 44.75747 -75.26069 22672 ft 359 kts 63°
2026-05-04 23:42 44.76720 -75.22837 22672 ft 359 kts 62°
2026-05-04 23:43 44.77688 -75.19593 22689 ft 359 kts 63°
2026-05-04 23:43 44.78634 -75.16338 22697 ft 360 kts 63°
2026-05-04 23:43 44.79579 -75.13076 22694 ft 360 kts 63°
2026-05-04 23:43 44.80532 -75.09822 22695 ft 360 kts 63°
2026-05-04 23:44 44.81489 -75.06565 22695 ft 360 kts 63°
2026-05-04 23:44 44.82441 -75.03304 22689 ft 360 kts 63°
2026-05-04 23:44 44.83389 -75.00038 22689 ft 360 kts 63°
2026-05-04 23:44 44.84338 -74.96772 22696 ft 360 kts 63°
2026-05-04 23:45 44.85288 -74.93506 22698 ft 360 kts 63°
2026-05-04 23:45 44.86237 -74.90238 22696 ft 360 kts 63°
2026-05-04 23:45 44.87184 -74.86969 22697 ft 360 kts 63°
2026-05-04 23:45 44.88131 -74.83695 22700 ft 360 kts 64°
2026-05-04 23:46 44.89076 -74.80423 22700 ft 361 kts 64°
2026-05-04 23:46 44.90009 -74.77190 22694 ft 361 kts 64°
2026-05-04 23:46 44.90953 -74.73916 22696 ft 361 kts 64°
2026-05-04 23:46 44.91798 -74.70576 22695 ft 363 kts 70°
2026-05-04 23:47 44.92527 -74.67165 22695 ft 363 kts 69°
2026-05-04 23:47 44.93281 -74.63772 22691 ft 363 kts 69°
2026-05-04 23:47 44.94035 -74.60376 22693 ft 363 kts 69°
2026-05-04 23:47 44.94774 -74.56966 22694 ft 363 kts 69°
2026-05-04 23:48 44.95506 -74.53562 22661 ft 361 kts 69°
2026-05-04 23:48 44.96241 -74.50177 22685 ft 361 kts 69°
2026-05-04 23:48 44.96982 -74.46779 22681 ft 363 kts 69°
2026-05-04 23:48 44.97720 -74.43372 22684 ft 363 kts 69°
2026-05-04 23:49 44.98457 -74.39952 22683 ft 364 kts 69°
2026-05-04 23:49 44.99192 -74.36529 22686 ft 365 kts 70°
2026-05-04 23:49 44.99815 -74.33040 22683 ft 366 kts 72°
2026-05-04 23:49 45.00482 -74.29570 22681 ft 366 kts 70°
2026-05-04 23:50 45.01176 -74.26110 22685 ft 366 kts 71°
2026-05-04 23:50 45.01827 -74.22627 22694 ft 367 kts 72°
2026-05-04 23:50 45.02452 -74.19131 22689 ft 367 kts 72°
2026-05-04 23:50 45.03095 -74.15631 22689 ft 367 kts 72°
2026-05-04 23:51 45.03753 -74.12141 22693 ft 367 kts 71°
2026-05-04 23:51 45.04406 -74.08649 22697 ft 367 kts 72°
2026-05-04 23:51 45.05039 -74.05194 22698 ft 368 kts 72°
2026-05-04 23:51 45.05680 -74.01687 22700 ft 368 kts 72°
2026-05-04 23:52 45.06325 -73.98187 22700 ft 368 kts 72°
2026-05-04 23:52 45.06972 -73.94681 22704 ft 368 kts 72°
2026-05-04 23:52 45.07600 -73.91167 22710 ft 369 kts 75°
2026-05-04 23:52 45.07871 -73.87547 22698 ft 371 kts 85°
2026-05-04 23:53 45.07984 -73.83898 22698 ft 372 kts 86°
2026-05-04 23:53 45.08096 -73.80247 22702 ft 371 kts 85°
2026-05-04 23:53 45.08252 -73.76600 22703 ft 371 kts 84°
2026-05-04 23:53 45.08417 -73.72951 22706 ft 372 kts 84°
2026-05-04 23:54 45.08559 -73.69303 22708 ft 372 kts 85°
2026-05-04 23:54 45.08690 -73.65650 22706 ft 372 kts 85°
2026-05-04 23:54 45.08828 -73.61997 22707 ft 372 kts 85°
2026-05-04 23:54 45.08973 -73.58342 22709 ft 372 kts 85°
2026-05-04 23:55 45.09020 -73.57155 22710 ft 372 kts 85°
2026-05-04 23:55 45.09092 -73.55265 22709 ft 372 kts 85°
2026-05-04 23:55 45.09337 -73.47947 22716 ft 372 kts 85°
2026-05-04 23:56 45.09460 -73.44291 22723 ft 372 kts 85°
2026-05-04 23:56 45.09588 -73.40633 22724 ft 372 kts 85°
2026-05-04 23:56 45.09713 -73.36974 22728 ft 372 kts 85°
2026-05-04 23:56 45.09833 -73.33314 22727 ft 372 kts 85°
2026-05-04 23:57 45.09951 -73.29658 22731 ft 372 kts 85°
2026-05-04 23:57 45.10071 -73.26008 22733 ft 372 kts 85°
2026-05-04 23:57 45.10190 -73.22352 22735 ft 372 kts 85°
2026-05-04 23:57 45.10307 -73.18695 22745 ft 372 kts 85°
2026-05-04 23:58 45.10422 -73.15042 22741 ft 372 kts 85°
2026-05-04 23:58 45.10536 -73.11385 22736 ft 372 kts 85°
2026-05-04 23:58 45.10649 -73.07730 22734 ft 372 kts 85°
2026-05-04 23:58 45.10762 -73.04076 22737 ft 372 kts 85°
2026-05-04 23:59 45.10872 -73.00421 22741 ft 372 kts 85°
2026-05-04 23:59 45.10982 -72.96764 22742 ft 372 kts 85°
2026-05-04 23:59 45.11091 -72.93108 22741 ft 372 kts 85°
2026-05-04 23:59 45.11199 -72.89444 22740 ft 372 kts 85°
2026-05-05 00:00 45.11304 -72.85777 22740 ft 372 kts 85°
2026-05-05 00:00 45.11339 -72.84590 22742 ft 372 kts 85°
2026-05-05 00:00 45.11514 -72.78451 22744 ft 373 kts 85°
2026-05-05 00:00 45.11617 -72.74787 22750 ft 373 kts 85°
2026-05-05 00:01 45.11719 -72.71115 22745 ft 373 kts 85°
2026-05-05 00:01 45.11820 -72.67448 22746 ft 373 kts 85°
2026-05-05 00:01 45.11920 -72.63777 22746 ft 373 kts 85°
2026-05-05 00:01 45.12017 -72.60156 22749 ft 373 kts 85°
2026-05-05 00:02 45.12113 -72.56486 22759 ft 373 kts 85°
2026-05-05 00:02 45.12208 -72.52809 22760 ft 374 kts 85°
2026-05-05 00:02 45.12303 -72.49131 22759 ft 374 kts 85°
2026-05-05 00:02 45.12399 -72.45457 22761 ft 374 kts 85°
2026-05-05 00:03 45.12492 -72.41775 22763 ft 374 kts 85°
2026-05-05 00:03 45.12583 -72.38100 22764 ft 373 kts 85°
2026-05-05 00:03 45.12673 -72.34422 22763 ft 374 kts 85°
2026-05-05 00:03 45.12762 -72.30748 22760 ft 373 kts 85°
2026-05-05 00:04 45.12850 -72.27076 22765 ft 373 kts 85°
2026-05-05 00:04 45.12936 -72.23408 22765 ft 373 kts 85°
2026-05-05 00:04 45.13022 -72.19734 22768 ft 373 kts 85°
2026-05-05 00:04 45.13106 -72.16065 22770 ft 373 kts 85°
2026-05-05 00:05 45.13189 -72.12399 22770 ft 372 kts 85°
2026-05-05 00:05 45.13271 -72.08730 22766 ft 372 kts 86°
2026-05-05 00:05 45.13351 -72.05071 22769 ft 372 kts 86°
2026-05-05 00:05 45.13430 -72.01411 22762 ft 372 kts 86°
2026-05-05 00:06 45.13509 -71.97753 22764 ft 372 kts 85°
2026-05-05 00:06 45.13585 -71.94141 22765 ft 372 kts 86°
2026-05-05 00:06 45.13660 -71.90485 22766 ft 372 kts 86°
2026-05-05 00:06 45.13738 -71.86774 22766 ft 385 kts 86°
2026-05-05 00:07 45.13818 -71.82913 22766 ft 398 kts 86°
2026-05-05 00:07 45.13893 -71.78985 22772 ft 400 kts 86°
2026-05-05 00:07 45.13966 -71.75044 22771 ft 401 kts 86°
2026-05-05 00:07 45.14042 -71.71087 22771 ft 402 kts 86°
2026-05-05 00:08 45.14118 -71.67125 22772 ft 403 kts 86°
2026-05-05 00:08 45.14191 -71.63158 22775 ft 404 kts 86°
2026-05-05 00:08 45.14261 -71.59183 22781 ft 404 kts 86°
2026-05-05 00:08 45.14161 -71.55200 22775 ft 405 kts 91°
2026-05-05 00:09 45.14009 -71.51213 22778 ft 405 kts 90°
2026-05-05 00:09 45.13890 -71.47226 22784 ft 405 kts 90°
2026-05-05 00:09 45.13761 -71.43233 22784 ft 406 kts 91°
2026-05-05 00:09 45.13606 -71.39242 22788 ft 406 kts 91°
2026-05-05 00:10 45.13447 -71.35248 22791 ft 406 kts 91°
2026-05-05 00:10 45.13302 -71.31257 22792 ft 406 kts 90°
2026-05-05 00:10 45.13161 -71.27257 22789 ft 407 kts 91°
2026-05-05 00:10 45.13012 -71.23261 22790 ft 406 kts 91°
2026-05-05 00:11 45.12852 -71.19261 22793 ft 406 kts 91°
2026-05-05 00:11 45.12698 -71.15263 22794 ft 407 kts 91°
2026-05-05 00:11 45.12547 -71.11259 22799 ft 407 kts 91°
2026-05-05 00:11 45.12392 -71.07249 22797 ft 407 kts 91°
2026-05-05 00:12 45.12232 -71.03244 22794 ft 408 kts 91°
2026-05-05 00:12 45.12070 -70.99235 22800 ft 408 kts 91°
2026-05-05 00:12 45.11910 -70.95225 22798 ft 408 kts 91°
2026-05-05 00:12 45.11748 -70.91212 22800 ft 408 kts 91°
2026-05-05 00:13 45.11584 -70.87197 22804 ft 408 kts 91°
2026-05-05 00:13 45.11419 -70.83187 22805 ft 408 kts 91°
2026-05-05 00:13 45.11252 -70.79171 22802 ft 408 kts 91°
2026-05-05 00:13 45.11084 -70.75160 22804 ft 408 kts 91°
2026-05-05 00:14 45.10914 -70.71146 22803 ft 408 kts 91°
2026-05-05 00:14 45.10742 -70.67133 22810 ft 409 kts 91°
2026-05-05 00:14 45.10568 -70.63110 22809 ft 409 kts 91°
2026-05-05 00:14 45.10395 -70.59094 22810 ft 409 kts 91°
2026-05-05 00:15 45.10221 -70.55072 22803 ft 409 kts 91°
2026-05-05 00:15 45.10044 -70.51057 22808 ft 409 kts 91°
2026-05-05 00:15 45.09864 -70.47032 22809 ft 409 kts 91°
2026-05-05 00:15 45.09684 -70.43015 22804 ft 409 kts 91°
2026-05-05 00:16 45.09506 -70.39047 22806 ft 410 kts 91°
2026-05-05 00:16 45.09323 -70.35020 22803 ft 410 kts 91°
2026-05-05 00:16 45.09134 -70.30945 22805 ft 410 kts 91°
2026-05-05 00:16 45.08949 -70.26927 22809 ft 409 kts 91°
2026-05-05 00:17 45.08763 -70.22903 22807 ft 410 kts 91°
2026-05-05 00:17 45.08578 -70.18933 22810 ft 410 kts 91°
2026-05-05 00:17 45.08387 -70.14907 22807 ft 410 kts 91°
2026-05-05 00:17 45.08196 -70.10885 22803 ft 410 kts 91°
2026-05-05 00:18 45.08001 -70.06858 22804 ft 410 kts 91°
2026-05-05 00:18 45.07807 -70.02830 22805 ft 410 kts 91°
2026-05-05 00:18 45.07613 -69.98808 22806 ft 410 kts 91°
2026-05-05 00:18 45.07417 -69.94787 22803 ft 410 kts 91°
2026-05-05 00:19 45.07217 -69.90772 22801 ft 410 kts 91°
2026-05-05 00:19 45.07018 -69.86751 22806 ft 410 kts 91°
2026-05-05 00:19 45.06816 -69.82729 22801 ft 410 kts 91°
2026-05-05 00:19 45.06612 -69.78702 22802 ft 410 kts 91°
2026-05-05 00:20 45.06477 -69.76040 22807 ft 410 kts 91°
2026-05-05 00:20 45.06272 -69.72014 22804 ft 410 kts 91°
2026-05-05 00:20 45.06066 -69.67984 22805 ft 410 kts 91°
2026-05-05 00:20 45.05857 -69.63955 22804 ft 411 kts 91°
2026-05-05 00:21 45.05647 -69.59930 22804 ft 410 kts 91°
2026-05-05 00:21 45.05435 -69.55905 22807 ft 410 kts 91°
2026-05-05 00:21 45.05223 -69.51884 22803 ft 410 kts 91°
2026-05-05 00:21 45.05009 -69.47854 22803 ft 410 kts 91°
2026-05-05 00:22 45.04795 -69.43831 22804 ft 410 kts 91°
2026-05-05 00:22 45.04578 -69.39809 22803 ft 410 kts 91°
2026-05-05 00:22 45.04359 -69.35777 22802 ft 411 kts 91°
2026-05-05 00:22 45.04139 -69.31753 22802 ft 411 kts 91°
2026-05-05 00:23 45.03918 -69.27726 22807 ft 411 kts 91°
2026-05-05 00:23 45.03695 -69.23702 22802 ft 411 kts 91°
2026-05-05 00:23 45.03472 -69.19676 22807 ft 411 kts 91°
2026-05-05 00:23 45.03247 -69.15645 22806 ft 411 kts 91°
2026-05-05 00:24 45.03020 -69.11617 22810 ft 411 kts 91°
2026-05-05 00:24 45.02791 -69.07589 22807 ft 411 kts 91°
2026-05-05 00:24 45.02561 -69.03559 22810 ft 411 kts 91°
2026-05-05 00:24 45.02329 -68.99531 22810 ft 411 kts 91°
2026-05-05 00:25 45.02097 -68.95501 22810 ft 411 kts 91°
2026-05-05 00:25 45.01863 -68.91469 22811 ft 411 kts 91°
2026-05-05 00:25 45.01627 -68.87443 22813 ft 411 kts 91°
2026-05-05 00:25 45.01390 -68.83413 22812 ft 412 kts 91°
2026-05-05 00:26 45.01151 -68.79376 22812 ft 412 kts 91°
2026-05-05 00:26 45.00911 -68.75343 22812 ft 412 kts 91°
2026-05-05 00:26 45.00673 -68.71364 22817 ft 412 kts 91°
2026-05-05 00:26 45.00429 -68.67333 22813 ft 412 kts 91°
2026-05-05 00:27 45.00185 -68.63293 22819 ft 412 kts 91°
2026-05-05 00:27 44.99939 -68.59257 22817 ft 412 kts 91°
2026-05-05 00:27 44.99692 -68.55222 22816 ft 412 kts 91°
2026-05-05 00:27 44.99442 -68.51180 22821 ft 413 kts 91°
2026-05-05 00:28 44.99192 -68.47143 22817 ft 413 kts 91°
2026-05-05 00:28 44.98939 -68.43100 22823 ft 413 kts 91°
2026-05-05 00:28 44.98685 -68.39060 22822 ft 413 kts 91°
2026-05-05 00:28 44.98430 -68.35010 22828 ft 413 kts 91°
2026-05-05 00:29 44.98173 -68.30969 22828 ft 413 kts 91°
2026-05-05 00:29 44.97915 -68.26924 22820 ft 414 kts 91°
2026-05-05 00:29 44.97656 -68.22880 22824 ft 414 kts 91°
2026-05-05 00:29 44.97395 -68.18836 22820 ft 414 kts 91°
2026-05-05 00:30 44.97131 -68.14785 22819 ft 414 kts 91°
2026-05-05 00:30 44.96868 -68.10742 22819 ft 414 kts 91°
2026-05-05 00:30 44.96603 -68.06691 22820 ft 414 kts 91°
2026-05-05 00:30 44.96335 -68.02646 22818 ft 414 kts 91°
2026-05-05 00:31 44.96065 -67.98593 22820 ft 415 kts 91°
2026-05-05 00:31 44.95795 -67.94537 22818 ft 415 kts 91°
2026-05-05 00:31 44.95524 -67.90485 22819 ft 415 kts 91°
2026-05-05 00:31 44.95250 -67.86430 22819 ft 415 kts 91°
2026-05-05 00:32 44.94976 -67.82374 22812 ft 415 kts 91°
2026-05-05 00:32 44.94698 -67.78315 22817 ft 416 kts 91°
2026-05-05 00:32 44.94419 -67.74252 22814 ft 416 kts 91°
2026-05-05 00:32 44.94140 -67.70188 22814 ft 416 kts 91°
2026-05-05 00:33 44.93860 -67.66123 22817 ft 416 kts 91°
2026-05-05 00:33 44.93576 -67.62056 22815 ft 417 kts 91°
2026-05-05 00:33 44.93295 -67.58042 22818 ft 417 kts 91°
2026-05-05 00:33 44.93008 -67.53969 22819 ft 417 kts 91°
2026-05-05 00:34 44.92720 -67.49901 22821 ft 417 kts 91°
2026-05-05 00:34 44.92431 -67.45822 22822 ft 418 kts 91°
2026-05-05 00:34 44.92141 -67.41750 22826 ft 418 kts 92°
2026-05-05 00:34 44.91848 -67.37661 22822 ft 419 kts 92°
2026-05-05 00:35 44.91551 -67.33574 22828 ft 419 kts 92°
2026-05-05 00:35 44.91255 -67.29489 22834 ft 419 kts 92°
2026-05-05 00:35 44.90958 -67.25397 22831 ft 419 kts 92°
2026-05-05 00:35 44.90659 -67.21308 22836 ft 420 kts 92°
2026-05-05 00:36 44.90357 -67.17210 22839 ft 420 kts 92°
2026-05-05 00:36 44.90226 -67.13115 22840 ft 417 kts 85°
2026-05-05 00:36 44.90245 -67.09023 22843 ft 417 kts 84°
2026-05-05 00:36 44.90249 -67.04937 22843 ft 418 kts 85°
2026-05-05 00:37 44.90232 -67.00837 22846 ft 418 kts 85°
2026-05-05 00:37 44.90218 -66.96730 22843 ft 418 kts 85°
2026-05-05 00:37 44.90217 -66.92625 22844 ft 419 kts 85°
2026-05-05 00:37 44.90215 -66.88516 22845 ft 419 kts 85°
2026-05-05 00:38 44.90202 -66.84402 22836 ft 420 kts 85°
2026-05-05 00:38 44.90184 -66.80285 22838 ft 420 kts 85°
2026-05-05 00:38 44.90171 -66.76163 22838 ft 420 kts 85°
2026-05-05 00:38 44.90157 -66.72071 22836 ft 413 kts 85°
2026-05-05 00:39 44.90140 -66.68064 22832 ft 405 kts 85°
2026-05-05 00:39 44.90118 -66.64117 22832 ft 399 kts 85°
2026-05-05 00:39 44.90101 -66.60236 22431 ft 395 kts 85°
2026-05-05 00:39 44.90090 -66.56363 21962 ft 394 kts 85°
2026-05-05 00:40 44.90070 -66.52507 21539 ft 392 kts 85°
2026-05-05 00:40 44.90044 -66.48669 21112 ft 391 kts 86°
2026-05-05 00:40 44.90020 -66.44841 20696 ft 388 kts 86°
2026-05-05 00:40 44.89997 -66.41045 20288 ft 387 kts 86°
2026-05-05 00:41 44.89974 -66.37257 19884 ft 385 kts 86°
2026-05-05 00:41 44.89947 -66.33544 19493 ft 383 kts 87°
2026-05-05 00:41 44.89918 -66.29796 19105 ft 381 kts 87°
2026-05-05 00:41 44.89889 -66.26068 18717 ft 380 kts 87°
2026-05-05 00:42 44.89860 -66.22349 18347 ft 378 kts 88°
2026-05-05 00:42 44.89830 -66.18650 17955 ft 376 kts 88°
2026-05-05 00:42 44.89797 -66.14971 17552 ft 374 kts 88°
2026-05-05 00:42 44.89764 -66.11316 17157 ft 372 kts 88°
2026-05-05 00:43 44.89730 -66.07680 16785 ft 369 kts 88°
2026-05-05 00:43 44.89696 -66.04072 16413 ft 367 kts 88°
2026-05-05 00:43 44.89661 -66.00481 16056 ft 365 kts 88°
2026-05-05 00:43 44.89624 -65.96913 15702 ft 363 kts 89°
2026-05-05 00:44 44.89586 -65.93363 15358 ft 361 kts 89°
2026-05-05 00:44 44.89548 -65.89839 15022 ft 359 kts 89°
2026-05-05 00:44 44.89509 -65.86326 14696 ft 357 kts 89°
2026-05-05 00:44 44.89469 -65.82838 14382 ft 355 kts 89°
2026-05-05 00:45 44.89428 -65.79376 14069 ft 353 kts 89°
2026-05-05 00:45 44.89387 -65.75928 13769 ft 351 kts 89°
2026-05-05 00:45 44.89344 -65.72494 13492 ft 351 kts 90°
2026-05-05 00:45 44.89301 -65.69121 13340 ft 347 kts 90°
2026-05-05 00:46 44.89257 -65.65721 13117 ft 347 kts 90°
2026-05-05 00:46 44.89212 -65.62329 12916 ft 345 kts 90°
2026-05-05 00:46 44.89166 -65.58949 12715 ft 344 kts 90°
2026-05-05 00:46 44.89120 -65.55581 12524 ft 343 kts 90°
2026-05-05 00:47 44.89072 -65.52231 12332 ft 341 kts 90°
2026-05-05 00:47 44.89024 -65.48886 12145 ft 340 kts 90°
2026-05-05 00:47 44.88975 -65.45571 12079 ft 335 kts 90°
2026-05-05 00:47 44.88925 -65.42304 12054 ft 331 kts 90°
2026-05-05 00:48 44.88875 -65.39059 12036 ft 331 kts 90°
2026-05-05 00:48 44.88824 -65.35809 12034 ft 332 kts 90°
2026-05-05 00:48 44.88772 -65.32550 12030 ft 333 kts 90°
2026-05-05 00:48 44.88720 -65.29285 11999 ft 334 kts 90°
2026-05-05 00:49 44.88666 -65.26003 11879 ft 337 kts 90°
2026-05-05 00:49 44.88610 -65.22683 11793 ft 338 kts 90°
2026-05-05 00:49 44.88553 -65.19371 11659 ft 337 kts 90°
2026-05-05 00:49 44.88497 -65.16112 11512 ft 337 kts 90°
2026-05-05 00:50 44.88438 -65.12811 11374 ft 336 kts 90°
2026-05-05 00:50 44.88379 -65.09518 11259 ft 335 kts 91°
2026-05-05 00:50 44.88319 -65.06232 11132 ft 335 kts 91°
2026-05-05 00:50 44.88259 -65.02956 11013 ft 334 kts 91°
2026-05-05 00:51 44.88197 -64.99684 10889 ft 333 kts 91°
2026-05-05 00:51 44.88134 -64.96419 10777 ft 332 kts 91°
2026-05-05 00:51 44.88071 -64.93164 10660 ft 332 kts 91°
2026-05-05 00:51 44.88008 -64.89921 10542 ft 331 kts 91°
2026-05-05 00:52 44.87943 -64.86682 10428 ft 330 kts 91°
2026-05-05 00:52 44.87920 -64.83445 10295 ft 330 kts 85°
2026-05-05 00:52 44.88295 -64.80272 10188 ft 327 kts 74°
2026-05-05 00:52 44.88872 -64.77180 10074 ft 325 kts 71°
2026-05-05 00:53 44.89460 -64.74121 10053 ft 322 kts 73°
2026-05-05 00:53 44.89910 -64.71038 10034 ft 320 kts 77°
2026-05-05 00:53 44.90294 -64.67965 10015 ft 318 kts 77°
2026-05-05 00:53 44.90720 -64.64921 10015 ft 315 kts 75°
2026-05-05 00:54 44.91184 -64.61902 10012 ft 314 kts 75°
2026-05-05 00:54 44.91635 -64.58887 10011 ft 314 kts 76°
2026-05-05 00:54 44.92063 -64.55866 10014 ft 314 kts 76°
2026-05-05 00:54 44.92489 -64.52848 10011 ft 313 kts 76°
2026-05-05 00:55 44.92925 -64.49834 10008 ft 313 kts 76°
2026-05-05 00:55 44.93361 -64.46825 10006 ft 313 kts 76°
2026-05-05 00:55 44.93787 -64.43855 10007 ft 313 kts 76°
2026-05-05 00:55 44.94218 -64.40817 10006 ft 312 kts 76°
2026-05-05 00:56 44.94645 -64.37814 10007 ft 312 kts 76°
2026-05-05 00:56 44.95070 -64.34853 10004 ft 312 kts 76°
2026-05-05 00:56 44.95499 -64.31852 10008 ft 312 kts 76°
2026-05-05 00:56 44.95930 -64.28804 10003 ft 315 kts 76°
2026-05-05 00:57 44.96355 -64.25796 10007 ft 317 kts 76°
2026-05-05 00:57 44.96787 -64.22740 10004 ft 318 kts 76°
2026-05-05 00:57 44.97221 -64.19668 10005 ft 320 kts 76°
2026-05-05 00:57 44.97654 -64.16589 10003 ft 320 kts 76°
2026-05-05 00:58 44.98088 -64.13502 10003 ft 321 kts 76°
2026-05-05 00:58 44.98468 -64.10794 10000 ft 321 kts 76°
2026-05-05 00:58 44.98901 -64.07699 10002 ft 321 kts 77°
2026-05-05 00:58 44.99333 -64.04602 10000 ft 321 kts 76°
2026-05-05 00:59 44.99765 -64.01503 9999 ft 321 kts 76°
2026-05-05 00:59 45.00196 -63.98405 10005 ft 322 kts 77°
2026-05-05 00:59 45.00626 -63.95304 10004 ft 322 kts 77°
2026-05-05 00:59 45.01056 -63.92202 10005 ft 322 kts 77°
2026-05-05 01:00 45.01484 -63.89096 10007 ft 322 kts 77°
2026-05-05 01:00 45.01912 -63.85992 10000 ft 322 kts 77°
2026-05-05 01:00 45.02341 -63.82882 9983 ft 323 kts 77°
2026-05-05 01:00 45.02765 -63.79788 9820 ft 320 kts 77°
2026-05-05 01:01 45.03187 -63.76700 9468 ft 320 kts 77°
2026-05-05 01:01 45.03608 -63.73619 9118 ft 319 kts 77°
2026-05-05 01:01 45.04027 -63.70560 8746 ft 315 kts 77°
2026-05-05 01:01 45.04441 -63.67523 8234 ft 314 kts 77°
2026-05-05 01:02 45.04850 -63.64499 7780 ft 311 kts 77°
2026-05-05 01:02 45.05255 -63.61509 7318 ft 309 kts 77°
2026-05-05 01:02 45.05658 -63.58537 6891 ft 306 kts 77°
2026-05-05 01:02 45.06042 -63.55675 6891 ft 286 kts 77°
2026-05-05 01:03 45.06414 -63.52997 6834 ft 270 kts 75°
2026-05-05 01:03 45.06841 -63.50413 6469 ft 271 kts 73°
2026-05-05 01:03 45.07285 -63.47840 6178 ft 268 kts 73°
2026-05-05 01:03 45.07730 -63.45284 5853 ft 267 kts 73°
2026-05-05 01:04 45.08023 -63.43598 5650 ft 265 kts 73°
2026-05-05 01:04 45.09045 -63.37707 4963 ft 261 kts 73°
2026-05-05 01:04 45.09209 -63.35156 4612 ft 263 kts 102°
2026-05-05 01:05 45.08436 -63.32965 4318 ft 247 kts 141°
2026-05-05 01:05 45.07032 -63.31915 4083 ft 215 kts 184°
2026-05-05 01:05 45.05755 -63.32355 4020 ft 174 kts 228°
2026-05-05 01:05 45.05297 -63.33712 4010 ft 149 kts 273°
2026-05-05 01:06 45.05374 -63.35069 4159 ft 133 kts 249°
2026-05-05 01:06 45.04757 -63.36072 4071 ft 142 kts 231°
2026-05-05 01:06 45.03884 -63.36752 3862 ft 142 kts 215°
2026-05-05 01:06 45.02991 -63.37173 3856 ft 127 kts 214°
2026-05-05 01:07 45.02159 -63.37478 3783 ft 126 kts 208°
2026-05-05 01:07 45.01284 -63.37737 3478 ft 133 kts 211°
2026-05-05 01:07 45.00710 -63.38019 3332 ft 127 kts 219°
2026-05-05 01:07 44.99946 -63.38539 3201 ft 118 kts 221°
2026-05-05 01:08 44.99238 -63.39011 2982 ft 115 kts 220°
2026-05-05 01:08 44.98575 -63.39498 2735 ft 101 kts 228°
2026-05-05 01:08 44.98024 -63.40078 2672 ft 99 kts 233°
2026-05-05 01:08 44.97503 -63.40735 2698 ft 101 kts 236°
2026-05-05 01:09 44.96983 -63.41425 2604 ft 107 kts 235°
2026-05-05 01:09 44.96441 -63.42115 2645 ft 98 kts 239°
2026-05-05 01:09 44.96080 -63.42871 2752 ft 95 kts 246°
2026-05-05 01:09 44.95541 -63.43558 2432 ft 109 kts 228°
2026-05-05 01:10 44.94891 -63.44118 2182 ft 114 kts 224°
2026-05-05 01:10 44.94181 -63.44744 1890 ft 122 kts 224°
2026-05-05 01:10 44.93539 -63.45478 1572 ft 115 kts 233°
2026-05-05 01:10 44.93012 -63.46345 1456 ft 118 kts 233°
2026-05-05 01:11 44.92356 -63.46940 1411 ft 121 kts 218°
2026-05-05 01:11 44.91679 -63.47635 1210 ft 121 kts 228°
2026-05-05 01:11 44.91039 -63.48421 1083 ft 121 kts 210°
2026-05-05 01:11 44.90292 -63.49067 884 ft 131 kts 214°
2026-05-05 01:12 44.89595 -63.49734 657 ft 110 kts 214°
2026-05-05 01:12 44.88956 -63.50370 518 ft 113 kts 213°
2026-05-05 01:12 44.88338 -63.50972 449 ft 96 kts 214°
2026-05-05 01:12 44.87953 -63.51355 457 ft 51 kts 214°
2026-05-05 01:13 44.87706 -63.51596 461 ft 37 kts 215°
2026-05-05 01:13 44.87537 -63.51766 459 ft 30 kts 216°
2026-05-05 01:13 44.87453 -63.51930 458 ft 16 kts 254°
2026-05-05 01:13 44.87451 -63.52046 462 ft 6 kts 285°
2026-05-05 01:14 44.87460 -63.52070 463 ft 0 kts 303°
2026-05-05 01:15 44.87465 -63.52082 464 ft 7 kts 303°
2026-05-05 01:15 44.87476 -63.52134 467 ft 6 kts 262°
2026-05-05 01:15 44.87442 -63.52187 469 ft 9 kts 213°
2026-05-05 01:15 44.87374 -63.52253 469 ft 15 kts 215°
2026-05-05 01:16 44.87279 -63.52348 469 ft 19 kts 214°
2026-05-05 01:16 44.87150 -63.52476 457 ft 28 kts 214°
2026-05-05 01:16 44.86997 -63.52626 456 ft 25 kts 216°
2026-05-05 01:16 44.86854 -63.52776 452 ft 24 kts 224°
2026-05-05 01:17 44.86744 -63.52949 449 ft 18 kts 230°
2026-05-05 01:17 44.86771 -63.53103 449 ft 17 kts 307°
2026-05-05 01:17 44.86847 -63.53234 449 ft 19 kts 311°
2026-05-05 01:17 44.86952 -63.53313 449 ft 20 kts 26°
2026-05-05 01:18 44.87052 -63.53307 449 ft 14 kts 341°
2026-05-05 01:18 44.87110 -63.53337 449 ft 7 kts 340°